Location: *
(28.2408°N, 53.4600°E)
Time: 19:23:41
(UTC+00:00)

Meteor 1-22 Rocket - Pass Details

Date: 22 September 2019
Orbit: 786 x 942 km, 81.2° (Epoch: 19 October)

Event Time Altitude Azimuth Distance (km) Brightness Sun altitude
Rises 16:01:51 0° 178° (S) 3,535 7.3 -22.4°
Reaches altitude 10° 16:04:18 10° 176° (S) 2,612 6.6 -22.9°
Maximum altitude 16:10:15 67° 95° (E) 1,010 4.3 -24.2°
Drops below altitude 10° 16:16:18 10° 14° (NNE) 2,659 6.8 -25.4°
Sets 16:18:49 0° 11° (NNE) 3,604 7.5 -26.0°
